Time,TemperatureF,DewpointF,PressureIn,WindDirection,WindDirectionDegrees,WindSpeedMPH,WindSpeedGustMPH,Humidity,HourlyPrecipIn,Conditions,Clouds,dailyrainin,SoftwareType,DateUTC
2013-04-09 00:35:00,60.0,42.0,29.90,NW,315,5.0,6.0,51,0.00,,,0.00,TxWx,2013-04-09 04:35:00,
2013-04-09 00:40:00,60.0,42.0,29.90,NNW,337,5.0,5.0,52,0.00,,,0.00,TxWx,2013-04-09 04:40:00,
2013-04-09 00:45:00,60.0,42.0,29.89,WNW,292,8.0,11.0,52,0.00,,,0.00,TxWx,2013-04-09 04:45:00,
2013-04-09 00:50:00,60.0,42.0,29.89,North,0,10.0,10.0,52,0.00,,,0.00,TxWx,2013-04-09 04:50:00,
2013-04-09 00:56:00,61.0,43.0,29.89,NW,315,8.0,8.0,52,0.00,,,0.00,TxWx,2013-04-09 04:56:00,
2013-04-09 01:02:00,61.0,43.0,29.88,NW,315,6.0,6.0,52,0.00,,,0.00,TxWx,2013-04-09 05:02:00,
2013-04-09 01:07:00,61.0,43.0,29.88,NNW,337,6.0,8.0,52,0.00,,,0.00,TxWx,2013-04-09 05:07:00,
2013-04-09 01:12:00,61.0,43.0,29.88,NNW,337,6.0,7.0,52,0.00,,,0.00,TxWx,2013-04-09 05:12:00,
2013-04-09 01:17:00,61.0,43.0,29.88,NNW,337,10.0,11.0,52,0.00,,,0.00,TxWx,2013-04-09 05:17:00,
2013-04-09 01:22:00,61.0,43.0,29.88,NW,315,6.0,7.0,52,0.00,,,0.00,TxWx,2013-04-09 05:22:00,
2013-04-09 01:28:00,61.0,43.0,29.87,NNW,337,7.0,7.0,53,0.00,,,0.00,TxWx,2013-04-09 05:28:00,
2013-04-09 01:33:00,61.0,43.0,29.86,NNW,337,7.0,8.0,53,0.00,,,0.00,TxWx,2013-04-09 05:33:00,
2013-04-09 01:38:00,60.0,43.0,29.86,NNW,337,8.0,8.0,53,0.00,,,0.00,TxWx,2013-04-09 05:38:00,
2013-04-09 01:43:00,60.0,43.0,29.86,NNW,337,8.0,8.0,54,0.00,,,0.00,TxWx,2013-04-09 05:43:00,
2013-04-09 01:49:00,60.0,43.0,29.85,NW,315,6.0,8.0,54,0.00,,,0.00,TxWx,2013-04-09 05:49:00,
2013-04-09 01:54:00,60.0,44.0,29.85,NNE,22,9.0,10.0,55,0.00,,,0.00,TxWx,2013-04-09 05:54:00,
2013-04-09 01:59:00,60.0,44.0,29.85,NNW,337,10.0,10.0,56,0.00,,,0.00,TxWx,2013-04-09 05:59:00,
2013-04-09 02:04:00,60.0,44.0,29.85,NW,315,8.0,9.0,56,0.00,,,0.00,TxWx,2013-04-09 06:04:00,
2013-04-09 02:09:00,61.0,45.0,29.85,NW,315,5.0,6.0,56,0.00,,,0.00,TxWx,2013-04-09 06:09:00,
2013-04-09 02:15:00,61.0,45.0,29.84,North,0,7.0,8.0,57,0.00,,,0.00,TxWx,2013-04-09 06:15:00,
2013-04-09 02:20:00,61.0,45.0,29.84,NW,315,9.0,10.0,57,0.00,,,0.00,TxWx,2013-04-09 06:20:00,
2013-04-09 02:25:00,61.0,46.0,29.84,NW,315,10.0,10.0,57,0.00,,,0.00,TxWx,2013-04-09 06:25:00,
2013-04-09 02:30:00,61.0,46.0,29.85,NW,315,8.0,10.0,57,0.00,,,0.00,TxWx,2013-04-09 06:30:00,
2013-04-09 02:36:00,60.0,45.0,29.84,NW,315,4.0,5.0,58,0.00,,,0.00,TxWx,2013-04-09 06:36:00,
2013-04-09 02:41:00,61.0,46.0,29.84,NW,315,3.0,4.0,58,0.00,,,0.00,TxWx,2013-04-09 06:41:00,
2013-04-09 02:46:00,61.0,46.0,29.83,NW,315,5.0,6.0,58,0.00,,,0.00,TxWx,2013-04-09 06:46:00,
2013-04-09 02:51:00,61.0,46.0,29.83,NNW,337,5.0,5.0,59,0.00,,,0.00,TxWx,2013-04-09 06:51:00,
2013-04-09 02:57:00,61.0,47.0,29.84,WNW,292,10.0,10.0,59,0.00,,,0.00,TxWx,2013-04-09 06:57:00,
2013-04-09 03:02:00,61.0,47.0,29.84,NNW,337,6.0,7.0,60,0.00,,,0.00,TxWx,2013-04-09 07:02:00,
2013-04-09 03:08:00,61.0,47.0,29.85,North,0,3.0,5.0,60,0.00,,,0.00,TxWx,2013-04-09 07:08:00,
2013-04-09 03:13:00,61.0,47.0,29.85,North,0,8.0,8.0,60,0.00,,,0.00,TxWx,2013-04-09 07:13:00,
2013-04-09 03:18:00,60.0,46.0,29.85,NW,315,5.0,5.0,60,0.00,,,0.00,TxWx,2013-04-09 07:18:00,
2013-04-09 03:24:00,59.0,46.0,29.83,NW,315,4.0,6.0,62,0.00,,,0.00,TxWx,2013-04-09 07:24:00,
2013-04-09 03:29:00,59.0,47.0,29.82,NW,315,5.0,6.0,64,0.00,,,0.00,TxWx,2013-04-09 07:29:00,
2013-04-09 03:35:00,59.0,47.0,29.82,NW,315,6.0,8.0,65,0.00,,,0.00,TxWx,2013-04-09 07:35:00,
2013-04-09 03:40:00,59.0,47.0,29.82,North,0,5.0,8.0,66,0.00,,,0.00,TxWx,2013-04-09 07:40:00,
2013-04-09 03:45:00,60.0,48.0,29.82,North,0,7.0,9.0,65,0.00,,,0.00,TxWx,2013-04-09 07:45:00,
2013-04-09 03:51:00,60.0,48.0,29.82,NW,315,6.0,6.0,65,0.00,,,0.00,TxWx,2013-04-09 07:51:00,
2013-04-09 03:56:00,60.0,48.0,29.82,NNW,337,5.0,5.0,65,0.00,,,0.00,TxWx,2013-04-09 07:56:00,
2013-04-09 04:01:00,60.0,48.0,29.82,NW,315,5.0,7.0,64,0.00,,,0.00,TxWx,2013-04-09 08:01:00,
2013-04-09 04:07:00,60.0,48.0,29.81,NW,315,6.0,9.0,64,0.00,,,0.00,TxWx,2013-04-09 08:07:00,
2013-04-09 04:12:00,60.0,48.0,29.81,NW,315,4.0,4.0,65,0.00,,,0.00,TxWx,2013-04-09 08:12:00,
2013-04-09 04:17:00,60.0,48.0,29.82,North,0,4.0,4.0,65,0.00,,,0.00,TxWx,2013-04-09 08:17:00,
2013-04-09 04:22:00,60.0,49.0,29.82,North,0,4.0,4.0,66,0.00,,,0.00,TxWx,2013-04-09 08:22:00,
2013-04-09 04:28:00,60.0,49.0,29.82,WNW,292,9.0,10.0,66,0.00,,,0.00,TxWx,2013-04-09 08:28:00,
2013-04-09 04:33:00,60.0,49.0,29.81,WNW,292,6.0,6.0,66,0.00,,,0.00,TxWx,2013-04-09 08:33:00,
2013-04-09 04:38:00,61.0,50.0,29.81,NNW,337,9.0,9.0,66,0.00,,,0.00,TxWx,2013-04-09 08:38:00,
2013-04-09 04:43:00,61.0,49.0,29.81,NNW,337,7.0,8.0,66,0.00,,,0.00,TxWx,2013-04-09 08:43:00,
2013-04-09 04:48:00,61.0,49.0,29.81,WNW,292,6.0,8.0,65,0.00,,,0.00,TxWx,2013-04-09 08:48:00,
2013-04-09 04:54:00,61.0,49.0,29.81,NNW,337,8.0,10.0,65,0.00,,,0.00,TxWx,2013-04-09 08:54:00,
2013-04-09 04:59:00,61.0,49.0,29.81,NNW,337,6.0,6.0,66,0.00,,,0.00,TxWx,2013-04-09 08:59:00,
2013-04-09 05:04:00,61.0,49.0,29.81,NW,315,6.0,8.0,66,0.00,,,0.00,TxWx,2013-04-09 09:04:00,
2013-04-09 05:10:00,61.0,49.0,29.81,NW,315,6.0,7.0,66,0.00,,,0.00,TxWx,2013-04-09 09:10:00,
2013-04-09 05:15:00,61.0,49.0,29.81,NW,315,6.0,9.0,66,0.00,,,0.00,TxWx,2013-04-09 09:15:00,
2013-04-09 05:20:00,61.0,49.0,29.81,NNW,337,7.0,8.0,66,0.00,,,0.00,TxWx,2013-04-09 09:20:00,
2013-04-09 05:25:00,61.0,50.0,29.81,NNW,337,5.0,8.0,66,0.00,,,0.00,TxWx,2013-04-09 09:25:00,
2013-04-09 05:31:00,61.0,50.0,29.81,WNW,292,4.0,5.0,66,0.00,,,0.00,TxWx,2013-04-09 09:31:00,
2013-04-09 05:36:00,61.0,50.0,29.81,NW,315,6.0,8.0,66,0.00,,,0.00,TxWx,2013-04-09 09:36:00,
2013-04-09 05:41:00,61.0,50.0,29.81,NW,315,6.0,6.0,66,0.00,,,0.00,TxWx,2013-04-09 09:41:00,
2013-04-09 05:46:00,61.0,49.0,29.81,NW,315,5.0,8.0,66,0.00,,,0.00,TxWx,2013-04-09 09:46:00,
2013-04-09 05:51:00,61.0,49.0,29.81,WNW,292,5.0,8.0,66,0.00,,,0.00,TxWx,2013-04-09 09:51:00,
2013-04-09 05:57:00,62.0,50.0,29.80,NW,315,8.0,8.0,66,0.00,,,0.00,TxWx,2013-04-09 09:57:00,
2013-04-09 06:02:00,62.0,50.0,29.81,NNW,337,5.0,6.0,65,0.00,,,0.00,TxWx,2013-04-09 10:02:00,
2013-04-09 06:07:00,62.0,50.0,29.81,NW,315,13.0,13.0,65,0.00,,,0.00,TxWx,2013-04-09 10:07:00,
2013-04-09 06:13:00,62.0,50.0,29.81,NW,315,8.0,9.0,65,0.00,,,0.00,TxWx,2013-04-09 10:13:00,
2013-04-09 06:18:00,61.0,49.0,29.81,NNW,337,9.0,10.0,65,0.00,,,0.00,TxWx,2013-04-09 10:18:00,
2013-04-09 06:23:00,61.0,49.0,29.81,NNW,337,10.0,11.0,66,0.00,,,0.00,TxWx,2013-04-09 10:23:00,
2013-04-09 06:29:00,61.0,50.0,29.81,WNW,292,7.0,8.0,66,0.00,,,0.00,TxWx,2013-04-09 10:29:00,
2013-04-09 06:34:00,61.0,50.0,29.81,NW,315,7.0,8.0,66,0.00,,,0.00,TxWx,2013-04-09 10:34:00,
2013-04-09 06:39:00,61.0,50.0,29.81,WNW,292,6.0,8.0,67,0.00,,,0.00,TxWx,2013-04-09 10:39:00,
2013-04-09 06:44:00,61.0,50.0,29.81,NNW,337,6.0,8.0,67,0.00,,,0.00,TxWx,2013-04-09 10:44:00,
2013-04-09 06:49:00,61.0,50.0,29.81,North,0,7.0,10.0,67,0.00,,,0.00,TxWx,2013-04-09 10:49:00,
2013-04-09 06:54:00,61.0,50.0,29.81,North,0,8.0,9.0,67,0.00,,,0.00,TxWx,2013-04-09 10:54:00,
2013-04-09 07:00:00,61.0,50.0,29.81,North,0,8.0,11.0,67,0.00,,,0.00,TxWx,2013-04-09 11:00:00,
2013-04-09 07:05:00,61.0,50.0,29.80,NW,315,10.0,10.0,67,0.00,,,0.00,TxWx,2013-04-09 11:05:00,
2013-04-09 07:11:00,61.0,50.0,29.81,NNW,337,6.0,10.0,67,0.00,,,0.00,TxWx,2013-04-09 11:11:00,
2013-04-09 07:16:00,61.0,50.0,29.80,North,0,9.0,10.0,67,0.00,,,0.00,TxWx,2013-04-09 11:16:00,
2013-04-09 07:21:00,61.0,50.0,29.81,NNW,337,5.0,6.0,67,0.00,,,0.00,TxWx,2013-04-09 11:21:00,
2013-04-09 07:26:00,61.0,50.0,29.81,North,0,6.0,10.0,67,0.00,,,0.00,TxWx,2013-04-09 11:26:00,
2013-04-09 07:31:00,61.0,50.0,29.80,North,0,8.0,8.0,67,0.00,,,0.00,TxWx,2013-04-09 11:31:00,
2013-04-09 07:36:00,61.0,50.0,29.80,NNW,337,6.0,8.0,67,0.00,,,0.00,TxWx,2013-04-09 11:36:00,
2013-04-09 07:42:00,61.0,50.0,29.82,NNE,22,3.0,3.0,67,0.00,,,0.00,TxWx,2013-04-09 11:42:00,
2013-04-09 07:47:00,62.0,51.0,29.82,NNE,22,3.0,3.0,67,0.00,,,0.00,TxWx,2013-04-09 11:47:00,
2013-04-09 07:52:00,62.0,51.0,29.81,SSW,202,3.0,4.0,67,0.00,,,0.00,TxWx,2013-04-09 11:52:00,
2013-04-09 07:57:00,62.0,51.0,29.82,North,0,1.0,2.0,67,0.00,,,0.00,TxWx,2013-04-09 11:57:00,
2013-04-09 08:02:00,63.0,51.0,29.82,SSE,157,3.0,4.0,66,0.00,,,0.00,TxWx,2013-04-09 12:02:00,
2013-04-09 08:07:00,63.0,51.0,29.83,East,90,1.0,1.0,66,0.00,,,0.00,TxWx,2013-04-09 12:07:00,
2013-04-09 08:13:00,64.0,52.0,29.81,SW,225,3.0,3.0,65,0.00,,,0.00,TxWx,2013-04-09 12:13:00,
2013-04-09 08:18:00,63.0,51.0,29.82,East,90,5.0,5.0,64,0.00,,,0.00,TxWx,2013-04-09 12:18:00,
2013-04-09 08:23:00,63.0,51.0,29.82,North,0,3.0,4.0,66,0.00,,,0.00,TxWx,2013-04-09 12:23:00,
2013-04-09 08:28:00,63.0,51.0,29.82,North,0,2.0,2.0,65,0.00,,,0.00,TxWx,2013-04-09 12:28:00,
2013-04-09 08:34:00,63.0,51.0,29.82,North,0,3.0,3.0,65,0.00,,,0.00,TxWx,2013-04-09 12:34:00,
2013-04-09 08:39:00,63.0,51.0,29.83,ENE,67,2.0,2.0,66,0.00,,,0.00,TxWx,2013-04-09 12:39:00,
2013-04-09 08:44:00,63.0,51.0,29.84,SE,135,4.0,4.0,66,0.00,,,0.00,TxWx,2013-04-09 12:44:00,
2013-04-09 08:49:00,63.0,51.0,29.85,ESE,112,6.0,8.0,65,0.00,,,0.00,TxWx,2013-04-09 12:49:00,
2013-04-09 08:54:00,63.0,51.0,29.86,South,180,6.0,8.0,65,0.00,,,0.00,TxWx,2013-04-09 12:54:00,
2013-04-09 09:00:00,64.0,51.0,29.87,SSE,157,6.0,8.0,64,0.00,,,0.00,TxWx,2013-04-09 13:00:00,
2013-04-09 09:05:00,64.0,51.0,29.87,ESE,112,10.0,11.0,62,0.00,,,0.00,TxWx,2013-04-09 13:05:00,
2013-04-09 09:10:00,64.0,50.0,29.87,SSE,157,8.0,14.0,61,0.00,,,0.00,TxWx,2013-04-09 13:10:00,
2013-04-09 09:15:00,65.0,51.0,29.87,SSW,202,7.0,10.0,60,0.00,,,0.00,TxWx,2013-04-09 13:15:00,
2013-04-09 09:20:00,66.0,51.0,29.87,ENE,67,3.0,5.0,60,0.00,,,0.00,TxWx,2013-04-09 13:20:00,
2013-04-09 09:25:00,66.0,51.0,29.88,SSE,157,12.0,16.0,59,0.00,,,0.00,TxWx,2013-04-09 13:25:00,
2013-04-09 09:30:00,66.0,51.0,29.88,SSW,202,9.0,13.0,58,0.00,,,0.00,TxWx,2013-04-09 13:30:00,
2013-04-09 09:36:00,66.0,51.0,29.88,South,180,14.0,16.0,58,0.00,,,0.00,TxWx,2013-04-09 13:36:00,
2013-04-09 09:41:00,66.0,51.0,29.88,SE,135,9.0,12.0,58,0.00,,,0.00,TxWx,2013-04-09 13:41:00,
2013-04-09 09:46:00,67.0,51.0,29.89,SE,135,8.0,10.0,56,0.00,,,0.00,TxWx,2013-04-09 13:46:00,
2013-04-09 09:51:00,68.0,51.0,29.89,SSW,202,8.0,8.0,55,0.00,,,0.00,TxWx,2013-04-09 13:51:00,
2013-04-09 09:56:00,67.0,50.0,29.90,South,180,10.0,10.0,55,0.00,,,0.00,TxWx,2013-04-09 13:56:00,
2013-04-09 10:02:00,67.0,50.0,29.90,SSE,157,10.0,13.0,54,0.00,,,0.00,TxWx,2013-04-09 14:02:00,
2013-04-09 10:07:00,67.0,50.0,29.90,South,180,8.0,8.0,54,0.00,,,0.00,TxWx,2013-04-09 14:07:00,
2013-04-09 10:12:00,67.0,48.0,29.91,SSE,157,16.0,16.0,50,0.00,,,0.00,TxWx,2013-04-09 14:12:00,
2013-04-09 10:17:00,67.0,46.0,29.91,ESE,112,8.0,10.0,48,0.00,,,0.00,TxWx,2013-04-09 14:17:00,
2013-04-09 10:22:00,68.0,47.0,29.91,SE,135,12.0,12.0,47,0.00,,,0.00,TxWx,2013-04-09 14:22:00,
2013-04-09 10:27:00,68.0,46.0,29.91,East,90,13.0,13.0,46,0.00,,,0.00,TxWx,2013-04-09 14:27:00,
2013-04-09 10:32:00,68.0,48.0,29.92,South,180,7.0,8.0,48,0.00,,,0.00,TxWx,2013-04-09 14:32:00,
2013-04-09 10:38:00,67.0,49.0,29.92,South,180,10.0,13.0,53,0.00,,,0.00,TxWx,2013-04-09 14:38:00,
2013-04-09 10:43:00,67.0,50.0,29.92,SSE,157,7.0,14.0,54,0.00,,,0.00,TxWx,2013-04-09 14:43:00,
2013-04-09 10:49:00,66.0,48.0,29.92,ESE,112,8.0,9.0,53,0.00,,,0.00,TxWx,2013-04-09 14:49:00,
2013-04-09 10:54:00,67.0,49.0,29.92,South,180,13.0,14.0,52,0.00,,,0.00,TxWx,2013-04-09 14:54:00,
2013-04-09 10:59:00,66.0,48.0,29.93,ESE,112,14.0,14.0,53,0.00,,,0.00,TxWx,2013-04-09 14:59:00,
2013-04-09 11:04:00,66.0,48.0,29.94,South,180,9.0,11.0,53,0.00,,,0.00,TxWx,2013-04-09 15:04:00,
2013-04-09 11:09:00,67.0,49.0,29.94,ESE,112,10.0,11.0,52,0.00,,,0.00,TxWx,2013-04-09 15:09:00,
2013-04-09 11:15:00,67.0,48.0,29.94,SE,135,11.0,11.0,52,0.00,,,0.00,TxWx,2013-04-09 15:15:00,
2013-04-09 11:20:00,67.0,48.0,29.94,ESE,112,7.0,11.0,52,0.00,,,0.00,TxWx,2013-04-09 15:20:00,
2013-04-09 11:26:00,67.0,48.0,29.95,South,180,12.0,12.0,51,0.00,,,0.00,TxWx,2013-04-09 15:26:00,
2013-04-09 11:31:00,67.0,48.0,29.94,East,90,10.0,13.0,50,0.00,,,0.00,TxWx,2013-04-09 15:31:00,
2013-04-09 11:36:00,66.0,47.0,29.95,SE,135,13.0,14.0,50,0.00,,,0.00,TxWx,2013-04-09 15:36:00,
2013-04-09 11:41:00,66.0,48.0,29.95,SE,135,8.0,11.0,52,0.00,,,0.00,TxWx,2013-04-09 15:41:00,
2013-04-09 11:47:00,67.0,48.0,29.94,SSE,157,7.0,10.0,50,0.00,,,0.00,TxWx,2013-04-09 15:47:00,
2013-04-09 11:52:00,67.0,48.0,29.95,East,90,10.0,11.0,51,0.00,,,0.00,TxWx,2013-04-09 15:52:00,
2013-04-09 11:57:00,67.0,48.0,29.95,SE,135,8.0,12.0,51,0.00,,,0.00,TxWx,2013-04-09 15:57:00,
2013-04-09 12:02:00,67.0,48.0,29.95,ESE,112,14.0,14.0,51,0.00,,,0.00,TxWx,2013-04-09 16:02:00,
2013-04-09 12:07:00,67.0,47.0,29.94,SE,135,8.0,10.0,50,0.00,,,0.00,TxWx,2013-04-09 16:07:00,
2013-04-09 12:12:00,67.0,47.0,29.94,SE,135,11.0,18.0,50,0.00,,,0.00,TxWx,2013-04-09 16:12:00,
2013-04-09 12:18:00,67.0,47.0,29.94,ESE,112,11.0,12.0,49,0.00,,,0.00,TxWx,2013-04-09 16:18:00,
2013-04-09 12:23:00,67.0,47.0,29.94,SE,135,11.0,13.0,49,0.00,,,0.00,TxWx,2013-04-09 16:23:00,
2013-04-09 12:29:00,67.0,47.0,29.94,East,90,7.0,14.0,49,0.00,,,0.00,TxWx,2013-04-09 16:29:00,
2013-04-09 12:34:00,68.0,48.0,29.94,ESE,112,5.0,8.0,48,0.00,,,0.00,TxWx,2013-04-09 16:34:00,
2013-04-09 12:39:00,68.0,47.0,29.93,SE,135,13.0,14.0,47,0.00,,,0.00,TxWx,2013-04-09 16:39:00,
2013-04-09 12:44:00,67.0,46.0,29.94,SE,135,8.0,15.0,48,0.00,,,0.00,TxWx,2013-04-09 16:44:00,
2013-04-09 12:49:00,68.0,47.0,29.94,ESE,112,10.0,10.0,47,0.00,,,0.00,TxWx,2013-04-09 16:49:00,
2013-04-09 12:55:00,68.0,46.0,29.94,South,180,8.0,12.0,46,0.00,,,0.00,TxWx,2013-04-09 16:55:00,
2013-04-09 13:00:00,68.0,47.0,29.94,SE,135,6.0,6.0,47,0.00,,,0.00,TxWx,2013-04-09 17:00:00,
2013-04-09 13:05:00,68.0,47.0,29.94,East,90,11.0,13.0,47,0.00,,,0.00,TxWx,2013-04-09 17:05:00,
2013-04-09 13:10:00,68.0,47.0,29.94,ENE,67,7.0,7.0,47,0.00,,,0.00,TxWx,2013-04-09 17:10:00,
2013-04-09 13:16:00,68.0,46.0,29.94,South,180,8.0,11.0,46,0.00,,,0.00,TxWx,2013-04-09 17:16:00,
2013-04-09 13:22:00,68.0,46.0,29.95,ESE,112,7.0,7.0,46,0.00,,,0.00,TxWx,2013-04-09 17:22:00,
2013-04-09 13:27:00,68.0,46.0,29.95,SE,135,14.0,16.0,46,0.00,,,0.00,TxWx,2013-04-09 17:27:00,
2013-04-09 13:32:00,67.0,45.0,29.95,SE,135,5.0,7.0,46,0.00,,,0.00,TxWx,2013-04-09 17:32:00,
2013-04-09 13:37:00,68.0,46.0,29.95,East,90,5.0,14.0,46,0.00,,,0.00,TxWx,2013-04-09 17:37:00,
2013-04-09 13:42:00,68.0,46.0,29.95,SSE,157,7.0,10.0,46,0.00,,,0.00,TxWx,2013-04-09 17:42:00,
2013-04-09 13:48:00,68.0,46.0,29.96,East,90,13.0,14.0,45,0.00,,,0.00,TxWx,2013-04-09 17:48:00,
2013-04-09 13:53:00,68.0,45.0,29.95,South,180,11.0,12.0,44,0.00,,,0.00,TxWx,2013-04-09 17:53:00,
2013-04-09 13:58:00,68.0,46.0,29.95,SSE,157,10.0,13.0,45,0.00,,,0.00,TxWx,2013-04-09 17:58:00,
2013-04-09 13:59:00,59.0,44.0,29.88,SSE,157,1.0,2.0,57,0.00,,,0.00,TxWx,2013-04-09 17:59:00,
2013-04-09 14:00:00,59.0,44.0,29.88,SSE,157,1.0,2.0,57,0.00,,,0.00,TxWx,2013-04-09 18:00:00,
2013-04-09 14:01:00,59.0,44.0,29.88,SSW,202,1.0,1.0,57,0.00,,,0.00,TxWx,2013-04-09 18:01:00,
2013-04-09 14:02:00,59.0,44.0,29.88,SW,225,1.0,1.0,57,0.00,,,0.00,TxWx,2013-04-09 18:02:00,
2013-04-09 14:03:00,68.0,46.0,29.95,ESE,112,7.0,8.0,45,0.00,,,0.00,TxWx,2013-04-09 18:03:00,
2013-04-09 14:04:00,59.0,44.0,29.87,WNW,292,3.0,3.0,57,0.00,,,0.00,TxWx,2013-04-09 18:04:00,
2013-04-09 14:05:00,59.0,44.0,29.87,WNW,292,3.0,3.0,57,0.00,,,0.00,TxWx,2013-04-09 18:05:00,
2013-04-09 14:06:00,59.0,44.0,29.87,NW,315,2.0,3.0,57,0.00,,,0.00,TxWx,2013-04-09 18:06:00,
2013-04-09 14:07:00,59.0,44.0,29.87,NW,315,1.0,1.0,57,0.00,,,0.00,TxWx,2013-04-09 18:07:00,
2013-04-09 14:08:00,68.0,46.0,29.95,South,180,6.0,8.0,45,0.00,,,0.00,TxWx,2013-04-09 18:08:00,
2013-04-09 14:09:00,59.0,44.0,29.87,NNE,22,1.0,1.0,57,0.00,,,0.00,TxWx,2013-04-09 18:09:00,
2013-04-09 14:10:00,59.0,44.0,29.87,NNE,22,1.0,1.0,57,0.00,,,0.00,TxWx,2013-04-09 18:10:00,
2013-04-09 14:11:00,59.0,44.0,29.88,ENE,67,2.0,3.0,57,0.00,,,0.00,TxWx,2013-04-09 18:11:00,
2013-04-09 14:12:00,59.0,44.0,29.88,ENE,67,2.0,3.0,57,0.00,,,0.00,TxWx,2013-04-09 18:12:00,
2013-04-09 14:13:00,59.0,44.0,29.88,ENE,67,2.0,3.0,57,0.00,,,0.00,TxWx,2013-04-09 18:13:00,
2013-04-09 14:14:00,68.0,45.0,29.95,East,90,17.0,19.0,43,0.00,,,0.00,TxWx,2013-04-09 18:14:00,
2013-04-09 14:15:00,59.0,44.0,29.88,NNW,337,1.0,1.0,58,0.00,,,0.00,TxWx,2013-04-09 18:15:00,
2013-04-09 14:16:00,59.0,44.0,29.87,NW,315,2.0,2.0,58,0.00,,,0.00,TxWx,2013-04-09 18:16:00,
2013-04-09 14:17:00,59.0,44.0,29.87,NW,315,2.0,3.0,58,0.00,,,0.00,TxWx,2013-04-09 18:17:00,
2013-04-09 14:18:00,58.0,43.0,29.87,NNW,337,2.0,2.0,58,0.00,,,0.00,TxWx,2013-04-09 18:18:00,
2013-04-09 14:19:00,68.0,45.0,29.95,SSE,157,11.0,14.0,44,0.00,,,0.00,TxWx,2013-04-09 18:19:00,
2013-04-09 14:20:00,58.0,43.0,29.87,NNW,337,3.0,3.0,58,0.00,,,0.00,TxWx,2013-04-09 18:20:00,
2013-04-09 14:21:00,58.0,43.0,29.87,NNW,337,1.0,2.0,58,0.00,,,0.00,TxWx,2013-04-09 18:21:00,
2013-04-09 14:22:00,58.0,43.0,29.87,North,0,2.0,2.0,58,0.00,,,0.00,TxWx,2013-04-09 18:22:00,
2013-04-09 14:23:00,58.0,43.0,29.87,NNE,22,1.0,1.0,58,0.00,,,0.00,TxWx,2013-04-09 18:23:00,
2013-04-09 14:24:00,68.0,45.0,29.95,SE,135,5.0,6.0,44,0.00,,,0.00,TxWx,2013-04-09 18:24:00,
2013-04-09 14:25:00,58.0,43.0,29.87,SW,225,0.0,1.0,58,0.00,,,0.00,TxWx,2013-04-09 18:25:00,
2013-04-09 14:29:00,68.0,45.0,29.95,ESE,112,11.0,11.0,44,0.00,,,0.00,TxWx,2013-04-09 18:29:00,
2013-04-09 14:30:00,58.0,44.0,29.87,SSE,157,3.0,3.0,59,0.00,,,0.00,TxWx,2013-04-09 18:30:00,
2013-04-09 14:34:00,68.0,44.0,29.94,SSE,157,11.0,13.0,43,0.00,,,0.00,TxWx,2013-04-09 18:34:00,
2013-04-09 14:35:00,58.0,45.0,29.86,South,180,2.0,2.0,62,0.00,,,0.00,TxWx,2013-04-09 18:35:00,
2013-04-09 14:36:00,58.0,45.0,29.86,SW,225,2.0,2.0,63,0.00,,,0.00,TxWx,2013-04-09 18:36:00,
2013-04-09 14:38:00,58.0,45.0,29.86,WNW,292,2.0,2.0,63,0.00,,,0.00,TxWx,2013-04-09 18:38:00,
2013-04-09 14:39:00,58.0,45.0,29.85,West,270,1.0,1.0,63,0.00,,,0.00,TxWx,2013-04-09 18:39:00,
2013-04-09 14:40:00,68.0,45.0,29.94,ESE,112,7.0,7.0,43,0.00,,,0.00,TxWx,2013-04-09 18:40:00,
2013-04-09 14:41:00,58.0,45.0,29.85,SW,225,2.0,2.0,63,0.00,,,0.00,TxWx,2013-04-09 18:41:00,
2013-04-09 14:42:00,57.0,45.0,29.85,SSE,157,2.0,2.0,63,0.00,,,0.00,TxWx,2013-04-09 18:42:00,
2013-04-09 14:43:00,57.0,45.0,29.85,SSE,157,2.0,2.0,63,0.00,,,0.00,TxWx,2013-04-09 18:43:00,
2013-04-09 14:44:00,57.0,45.0,29.85,SSE,157,1.0,2.0,64,0.00,,,0.00,TxWx,2013-04-09 18:44:00,
2013-04-09 14:45:00,68.0,44.0,29.94,ESE,112,8.0,9.0,43,0.00,,,0.00,TxWx,2013-04-09 18:45:00,
2013-04-09 14:46:00,57.0,45.0,29.85,ESE,112,2.0,3.0,65,0.00,,,0.00,TxWx,2013-04-09 18:46:00,
2013-04-09 14:47:00,57.0,45.0,29.85,ESE,112,3.0,3.0,65,0.00,,,0.00,TxWx,2013-04-09 18:47:00,
2013-04-09 14:48:00,57.0,46.0,29.85,SE,135,3.0,3.0,66,0.00,,,0.00,TxWx,2013-04-09 18:48:00,
2013-04-09 14:50:00,68.0,45.0,29.94,South,180,9.0,14.0,43,0.00,,,0.00,TxWx,2013-04-09 18:50:00,
2013-04-09 14:55:00,69.0,46.0,29.94,SSE,157,10.0,15.0,43,0.00,,,0.00,TxWx,2013-04-09 18:55:00,
2013-04-09 14:56:00,57.0,46.0,29.86,SSE,157,2.0,2.0,67,0.00,,,0.00,TxWx,2013-04-09 18:56:00,
2013-04-09 15:00:00,69.0,45.0,29.94,SSE,157,8.0,11.0,43,0.00,,,0.00,TxWx,2013-04-09 19:00:00,
2013-04-09 15:05:00,69.0,45.0,29.94,South,180,14.0,14.0,42,0.00,,,0.00,TxWx,2013-04-09 19:05:00,
2013-04-09 15:11:00,69.0,45.0,29.94,SSE,157,11.0,11.0,42,0.00,,,0.00,TxWx,2013-04-09 19:11:00,
2013-04-09 15:16:00,69.0,45.0,29.94,SSE,157,6.0,11.0,42,0.00,,,0.00,TxWx,2013-04-09 19:16:00,
2013-04-09 15:22:00,69.0,44.0,29.94,SE,135,13.0,14.0,41,0.00,,,0.00,TxWx,2013-04-09 19:22:00,
2013-04-09 15:27:00,70.0,45.0,29.93,SSE,157,6.0,6.0,41,0.00,,,0.00,TxWx,2013-04-09 19:27:00,
2013-04-09 15:32:00,70.0,45.0,29.93,East,90,8.0,11.0,41,0.00,,,0.00,TxWx,2013-04-09 19:32:00,
2013-04-09 15:38:00,70.0,45.0,29.93,South,180,5.0,7.0,41,0.00,,,0.00,TxWx,2013-04-09 19:38:00,
2013-04-09 15:43:00,70.0,45.0,29.93,SSE,157,5.0,6.0,40,0.00,,,0.00,TxWx,2013-04-09 19:43:00,
2013-04-09 15:49:00,70.0,45.0,29.93,South,180,3.0,6.0,41,0.00,,,0.00,TxWx,2013-04-09 19:49:00,
2013-04-09 15:54:00,70.0,45.0,29.93,SSE,157,8.0,8.0,41,0.00,,,0.00,TxWx,2013-04-09 19:54:00,
2013-04-09 15:59:00,70.0,45.0,29.92,South,180,6.0,10.0,41,0.00,,,0.00,TxWx,2013-04-09 19:59:00,
2013-04-09 16:05:00,71.0,45.0,29.92,SE,135,5.0,7.0,40,0.00,,,0.00,TxWx,2013-04-09 20:05:00,
2013-04-09 16:10:00,70.0,44.0,29.92,East,90,5.0,10.0,39,0.00,,,0.00,TxWx,2013-04-09 20:10:00,
2013-04-09 16:15:00,71.0,45.0,29.92,SSE,157,5.0,7.0,39,0.00,,,0.00,TxWx,2013-04-09 20:15:00,
2013-04-09 16:20:00,71.0,44.0,29.91,East,90,9.0,12.0,39,0.00,,,0.00,TxWx,2013-04-09 20:20:00,
2013-04-09 16:25:00,72.0,46.0,29.91,SE,135,8.0,8.0,39,0.00,,,0.00,TxWx,2013-04-09 20:25:00,
2013-04-09 16:30:00,71.0,45.0,29.91,SSE,157,6.0,6.0,39,0.00,,,0.00,TxWx,2013-04-09 20:30:00,
2013-04-09 16:37:00,71.0,45.0,29.91,SSE,157,11.0,12.0,39,0.00,,,0.00,TxWx,2013-04-09 20:37:00,
2013-04-09 16:42:00,71.0,44.0,29.91,South,180,9.0,11.0,39,0.00,,,0.00,TxWx,2013-04-09 20:42:00,
2013-04-09 16:47:00,71.0,44.0,29.91,SSE,157,11.0,13.0,39,0.00,,,0.00,TxWx,2013-04-09 20:47:00,
2013-04-09 16:52:00,71.0,45.0,29.92,South,180,10.0,10.0,39,0.00,,,0.00,TxWx,2013-04-09 20:52:00,
2013-04-09 16:58:00,70.0,44.0,29.92,SE,135,9.0,13.0,40,0.00,,,0.00,TxWx,2013-04-09 20:58:00,
2013-04-09 17:03:00,70.0,45.0,29.92,South,180,11.0,11.0,41,0.00,,,0.00,TxWx,2013-04-09 21:03:00,
2013-04-09 17:09:00,69.0,45.0,29.92,South,180,14.0,14.0,42,0.00,,,0.00,TxWx,2013-04-09 21:09:00,
2013-04-09 17:14:00,69.0,45.0,29.92,South,180,7.0,10.0,43,0.00,,,0.00,TxWx,2013-04-09 21:14:00,
2013-04-09 17:19:00,68.0,45.0,29.92,SSE,157,6.0,10.0,43,0.00,,,0.00,TxWx,2013-04-09 21:19:00,
2013-04-09 17:24:00,68.0,45.0,29.93,South,180,8.0,9.0,44,0.00,,,0.00,TxWx,2013-04-09 21:24:00,
2013-04-09 17:30:00,68.0,45.0,29.93,SSW,202,7.0,7.0,43,0.00,,,0.00,TxWx,2013-04-09 21:30:00,
2013-04-09 17:35:00,68.0,45.0,29.93,SSW,202,11.0,11.0,44,0.00,,,0.00,TxWx,2013-04-09 21:35:00,
2013-04-09 17:40:00,68.0,45.0,29.93,SSW,202,10.0,12.0,44,0.00,,,0.00,TxWx,2013-04-09 21:40:00,
2013-04-09 17:46:00,68.0,45.0,29.93,West,270,6.0,11.0,44,0.00,,,0.00,TxWx,2013-04-09 21:46:00,
2013-04-09 17:51:00,68.0,45.0,29.93,SSE,157,11.0,14.0,44,0.00,,,0.00,TxWx,2013-04-09 21:51:00,
2013-04-09 17:57:00,68.0,45.0,29.93,SSW,202,11.0,12.0,44,0.00,,,0.00,TxWx,2013-04-09 21:57:00,
2013-04-09 18:02:00,67.0,45.0,29.92,South,180,11.0,11.0,45,0.00,,,0.00,TxWx,2013-04-09 22:02:00,
2013-04-09 18:07:00,67.0,45.0,29.93,SSE,157,3.0,6.0,45,0.00,,,0.00,TxWx,2013-04-09 22:07:00,
2013-04-09 18:12:00,67.0,45.0,29.93,SSW,202,8.0,13.0,45,0.00,,,0.00,TxWx,2013-04-09 22:12:00,
2013-04-09 18:18:00,67.0,45.0,29.93,South,180,5.0,6.0,45,0.00,,,0.00,TxWx,2013-04-09 22:18:00,
2013-04-09 18:23:00,67.0,45.0,29.93,South,180,8.0,10.0,45,0.00,,,0.00,TxWx,2013-04-09 22:23:00,
2013-04-09 18:28:00,67.0,45.0,29.93,South,180,10.0,10.0,45,0.00,,,0.00,TxWx,2013-04-09 22:28:00,
2013-04-09 18:33:00,66.0,44.0,29.93,SE,135,3.0,6.0,46,0.00,,,0.00,TxWx,2013-04-09 22:33:00,
2013-04-09 18:39:00,66.0,44.0,29.93,SSE,157,7.0,9.0,46,0.00,,,0.00,TxWx,2013-04-09 22:39:00,
2013-04-09 18:44:00,65.0,44.0,29.93,South,180,8.0,9.0,46,0.00,,,0.00,TxWx,2013-04-09 22:44:00,
2013-04-09 18:49:00,65.0,44.0,29.92,SW,225,9.0,11.0,47,0.00,,,0.00,TxWx,2013-04-09 22:49:00,
2013-04-09 18:54:00,65.0,44.0,29.92,South,180,6.0,8.0,47,0.00,,,0.00,TxWx,2013-04-09 22:54:00,
2013-04-09 19:00:00,65.0,44.0,29.93,SSW,202,7.0,7.0,47,0.00,,,0.00,TxWx,2013-04-09 23:00:00,
2013-04-09 19:05:00,65.0,44.0,29.93,SW,225,6.0,6.0,47,0.00,,,0.00,TxWx,2013-04-09 23:05:00,
2013-04-09 19:10:00,65.0,45.0,29.94,SSE,157,3.0,3.0,48,0.00,,,0.00,TxWx,2013-04-09 23:10:00,
2013-04-09 19:15:00,64.0,44.0,29.94,South,180,3.0,3.0,48,0.00,,,0.00,TxWx,2013-04-09 23:15:00,
2013-04-09 19:20:00,64.0,44.0,29.94,South,180,3.0,4.0,48,0.00,,,0.00,TxWx,2013-04-09 23:20:00,
2013-04-09 19:25:00,64.0,44.0,29.94,South,180,3.0,3.0,49,0.00,,,0.00,TxWx,2013-04-09 23:25:00,
2013-04-09 19:31:00,64.0,44.0,29.94,SSE,157,3.0,4.0,49,0.00,,,0.00,TxWx,2013-04-09 23:31:00,
2013-04-09 19:36:00,63.0,43.0,29.95,SE,135,3.0,3.0,49,0.00,,,0.00,TxWx,2013-04-09 23:36:00,
2013-04-09 19:41:00,63.0,44.0,29.95,SSE,157,3.0,3.0,50,0.00,,,0.00,TxWx,2013-04-09 23:41:00,
2013-04-09 19:47:00,63.0,44.0,29.95,SE,135,3.0,6.0,50,0.00,,,0.00,TxWx,2013-04-09 23:47:00,
2013-04-09 19:52:00,63.0,44.0,29.94,South,180,3.0,4.0,50,0.00,,,0.00,TxWx,2013-04-09 23:52:00,
2013-04-09 19:58:00,62.0,43.0,29.94,SSE,157,5.0,5.0,51,0.00,,,0.00,TxWx,2013-04-09 23:58:00,
2013-04-09 20:03:00,62.0,44.0,29.95,SSW,202,2.0,3.0,51,0.00,,,0.00,TxWx,2013-04-10 00:03:00,
2013-04-09 20:08:00,62.0,44.0,29.95,South,180,1.0,1.0,52,0.00,,,0.00,TxWx,2013-04-10 00:08:00,
2013-04-09 20:13:00,62.0,44.0,29.95,SSE,157,3.0,4.0,52,0.00,,,0.00,TxWx,2013-04-10 00:13:00,
2013-04-09 20:18:00,62.0,44.0,29.95,South,180,3.0,5.0,52,0.00,,,0.00,TxWx,2013-04-10 00:18:00,
2013-04-09 20:23:00,62.0,44.0,29.96,South,180,3.0,3.0,52,0.00,,,0.00,TxWx,2013-04-10 00:23:00,
2013-04-09 20:29:00,62.0,44.0,29.96,ESE,112,2.0,3.0,51,0.00,,,0.00,TxWx,2013-04-10 00:29:00,
2013-04-09 20:34:00,62.0,44.0,29.96,SSW,202,2.0,2.0,51,0.00,,,0.00,TxWx,2013-04-10 00:34:00,
2013-04-09 20:39:00,62.0,44.0,29.95,SW,225,3.0,4.0,52,0.00,,,0.00,TxWx,2013-04-10 00:39:00,
2013-04-09 20:44:00,62.0,44.0,29.95,South,180,4.0,5.0,52,0.00,,,0.00,TxWx,2013-04-10 00:44:00,
2013-04-09 20:49:00,62.0,44.0,29.94,SSW,202,3.0,5.0,52,0.00,,,0.00,TxWx,2013-04-10 00:49:00,
2013-04-09 20:55:00,62.0,44.0,29.96,ESE,112,1.0,1.0,52,0.00,,,0.00,TxWx,2013-04-10 00:55:00,
2013-04-09 21:00:00,61.0,43.0,29.97,NNE,22,3.0,3.0,52,0.00,,,0.00,TxWx,2013-04-10 01:00:00,
2013-04-09 21:05:00,61.0,43.0,29.96,ESE,112,2.0,3.0,53,0.00,,,0.00,TxWx,2013-04-10 01:05:00,
2013-04-09 21:10:00,61.0,43.0,29.96,SE,135,0.0,0.0,53,0.00,,,0.00,TxWx,2013-04-10 01:10:00,
2013-04-09 21:15:00,61.0,44.0,29.96,WNW,292,0.0,1.0,53,0.00,,,0.00,TxWx,2013-04-10 01:15:00,
2013-04-09 21:21:00,61.0,44.0,29.95,SSE,157,3.0,4.0,54,0.00,,,0.00,TxWx,2013-04-10 01:21:00,
2013-04-09 21:27:00,61.0,44.0,29.94,SSW,202,3.0,5.0,54,0.00,,,0.00,TxWx,2013-04-10 01:27:00,
2013-04-09 21:32:00,61.0,44.0,29.93,SSE,157,5.0,6.0,54,0.00,,,0.00,TxWx,2013-04-10 01:32:00,
2013-04-09 21:37:00,61.0,44.0,29.93,South,180,6.0,6.0,54,0.00,,,0.00,TxWx,2013-04-10 01:37:00,
2013-04-09 21:42:00,61.0,44.0,29.93,South,180,6.0,6.0,53,0.00,,,0.00,TxWx,2013-04-10 01:42:00,
2013-04-09 21:47:00,61.0,43.0,29.94,South,180,2.0,3.0,53,0.00,,,0.00,TxWx,2013-04-10 01:47:00,
2013-04-09 21:53:00,61.0,43.0,29.95,SE,135,5.0,6.0,52,0.00,,,0.00,TxWx,2013-04-10 01:53:00,
2013-04-09 21:58:00,61.0,43.0,29.95,ESE,112,3.0,4.0,52,0.00,,,0.00,TxWx,2013-04-10 01:58:00,
2013-04-09 22:03:00,61.0,44.0,29.94,SSE,157,5.0,5.0,53,0.00,,,0.00,TxWx,2013-04-10 02:03:00,
2013-04-09 22:08:00,61.0,44.0,29.94,South,180,3.0,3.0,54,0.00,,,0.00,TxWx,2013-04-10 02:08:00,
2013-04-09 22:14:00,61.0,44.0,29.94,SSE,157,3.0,4.0,54,0.00,,,0.00,TxWx,2013-04-10 02:14:00,
2013-04-09 22:19:00,60.0,43.0,29.93,South,180,4.0,5.0,54,0.00,,,0.00,TxWx,2013-04-10 02:19:00,
2013-04-09 22:24:00,61.0,44.0,29.93,SSE,157,3.0,5.0,53,0.00,,,0.00,TxWx,2013-04-10 02:24:00,
2013-04-09 22:29:00,60.0,43.0,29.92,South,180,3.0,3.0,53,0.00,,,0.00,TxWx,2013-04-10 02:29:00,
2013-04-09 22:34:00,60.0,43.0,29.91,SSW,202,4.0,4.0,54,0.00,,,0.00,TxWx,2013-04-10 02:34:00,
2013-04-09 22:39:00,60.0,43.0,29.91,SSE,157,2.0,3.0,54,0.00,,,0.00,TxWx,2013-04-10 02:39:00,
2013-04-09 22:45:00,60.0,43.0,29.91,South,180,4.0,5.0,54,0.00,,,0.00,TxWx,2013-04-10 02:45:00,
2013-04-09 22:50:00,60.0,44.0,29.91,South,180,2.0,3.0,55,0.00,,,0.00,TxWx,2013-04-10 02:50:00,
2013-04-09 22:55:00,60.0,44.0,29.90,SE,135,2.0,3.0,55,0.00,,,0.00,TxWx,2013-04-10 02:55:00,
2013-04-09 23:00:00,60.0,44.0,29.90,SE,135,3.0,3.0,55,0.00,,,0.00,TxWx,2013-04-10 03:00:00,
2013-04-09 23:06:00,60.0,44.0,29.90,ESE,112,1.0,1.0,55,0.00,,,0.00,TxWx,2013-04-10 03:06:00,
2013-04-09 23:11:00,60.0,44.0,29.89,SE,135,1.0,2.0,55,0.00,,,0.00,TxWx,2013-04-10 03:11:00,
2013-04-09 23:16:00,59.0,43.0,29.89,SE,135,2.0,3.0,56,0.00,,,0.00,TxWx,2013-04-10 03:16:00,
2013-04-09 23:22:00,59.0,43.0,29.89,SSE,157,2.0,3.0,56,0.00,,,0.00,TxWx,2013-04-10 03:22:00,
2013-04-09 23:27:00,59.0,43.0,29.89,SSE,157,3.0,3.0,56,0.00,,,0.00,TxWx,2013-04-10 03:27:00,
2013-04-09 23:32:00,59.0,43.0,29.88,SW,225,2.0,3.0,56,0.00,,,0.00,TxWx,2013-04-10 03:32:00,
2013-04-09 23:37:00,59.0,43.0,29.89,ESE,112,5.0,5.0,56,0.00,,,0.00,TxWx,2013-04-10 03:37:00,
2013-04-09 23:42:00,59.0,44.0,29.89,ESE,112,3.0,4.0,57,0.00,,,0.00,TxWx,2013-04-10 03:42:00,
2013-04-09 23:48:00,59.0,44.0,29.88,South,180,3.0,3.0,57,0.00,,,0.00,TxWx,2013-04-10 03:48:00,
2013-04-09 23:53:00,59.0,44.0,29.88,ESE,112,1.0,1.0,57,0.00,,,0.00,TxWx,2013-04-10 03:53:00,
2013-04-09 23:58:00,59.0,44.0,29.88,SSE,157,3.0,3.0,57,0.00,,,0.00,TxWx,2013-04-10 03:58:00,